Погода в Гнетово

Россия / Рязанская область     54°38′42″N   39°58′54″E
темп.,
°C
ветер,
м/с
пор.,
м/с
влажн.,
%
обл.,
%
осадки,
мм/ч
давл.,
гПа
погр.,
м
26 июля, пн
пн2600:00+14ю226278 0.0 102219
03:00+15юз226137 0.0 102331
06:00+15юз236655 0.0 102383
09:00+19зюз2353100 0.0 1023249
12:00+25зюз353490 0.0 10232442
15:00+25зсз243549 0.0 10222132
18:00+25сз23376 0.0 10211490
21:00+18зсз116317 0.0 102211
27 июля, вт
вт2700:00+18юз115823 0.0 102211
03:00+16зюз226985 0.0 102232
06:00+17зюз248799 0.6 102294
09:00+24з23551 0.6 1021556
12:00+28зсз333192 0.0 10202872
15:00+29с242982 0.0 10192982
18:00+26с244251 0.0 1019200
21:00+20сз235974 0.0 102061
28 июля, ср
ср2800:00+17з227914 0.0 102026
03:00+15з11824 0.0 101911
06:00+18юз23775 0.0 101896
09:00+24юз345211 0.0 1017643
12:00+29юз44396 0.0 10162095
15:00+28юз463885 0.0 10141551
18:00+28юз363899 0.0 1012893
21:00+21з3972100 0.1 1012391
29 июля, чт
чт2900:00+18ююз2391100 0.4 101168
03:00+18ююз389568 1.9 1009313
06:00+18зюз4129634 0.0 1008526
09:00+23з48654 0.0 1008787
12:00+28з694127 0.0 10072475
15:00+30з693248 0.0 10062747
18:00+28зсз483977 0.0 10061670
21:00+22з246122 0.0 100769
30 июля, пт
пт3000:00+20зюз227077 0.0 100730
03:00+19з2375100 0.0 100751
06:00+20юз2375100 0.0 100799
09:00+22зюз357453 0.3 1007399
12:00+28з334814 0.0 10061612
15:00+25сз356339 0.8 1007810
18:00+25зсз245475 0.1 1007289
21:00+20сз245916 0.1 100879